Location: Boston
(42.3580°N, 71.0600°W)
Time: 03:19:48
(UTC-04:00)

Vanguard 3 - All Passes

Search period start: 19 October 2017 00:00
Search period end: 29 October 2017 00:00
Orbit: 510 x 3263 km, 33.3° (Epoch: 18 October)

Date Brightness Start Highest point End Pass type
(mag) Time Alt. Az. Time Alt. Az. Time Alt. Az.
19 Oct - 02:47:28 10° S 02:57:16 19° SSE 03:04:42 10° ESE visible
19 Oct - 04:58:53 10° SW 05:10:41 35° SSE 05:17:55 10° ESE visible
19 Oct - 07:13:49 10° WSW 07:23:06 42° S 07:28:35 10° ESE daylight
19 Oct - 09:28:59 10° WSW 09:34:13 24° SSW 09:37:56 10° SSE daylight
20 Oct - 01:35:56 10° SSE 01:42:19 13° SE 01:47:52 10° ESE visible
20 Oct - 03:43:28 10° SSW 03:56:07 30° SSE 04:04:28 10° ESE visible
20 Oct - 05:57:41 10° WSW 06:09:12 44° S 06:15:55 10° ESE visible
20 Oct - 08:13:14 10° WSW 08:21:05 37° SSW 08:25:56 10° SE daylight
20 Oct - 10:29:30 10° WSW 10:31:31 12° SW 10:33:17 10° SSW daylight
21 Oct - 02:28:55 10° SSW 02:41:12 24° SSE 02:50:11 10° ESE visible
21 Oct - 04:41:30 10° SW 04:54:52 41° SSE 05:02:55 10° E visible
21 Oct - 06:57:07 10° WSW 07:07:32 45° S 07:13:33 10° ESE daylight
21 Oct - 09:12:56 10° WSW 09:18:42 24° SSW 09:22:42 10° SSE daylight
22 Oct - 01:16:05 10° S 01:26:05 17° SE 01:34:21 10° ESE visible
22 Oct - 03:25:42 10° SW 03:40:06 36° SSE 03:49:28 10° E visible
22 Oct - 05:40:39 10° WSW 05:53:29 48° S 06:00:52 10° ESE visible
22 Oct - 07:56:48 10° W 08:05:32 38° SSW 08:10:50 10° SE daylight
22 Oct - 10:14:05 10° WSW 10:15:53 11° SW 10:17:29 10° SSW daylight
23 Oct - 00:09:43 10° SE 00:10:56 10° SE 00:12:08 10° SE visible
23 Oct - 02:10:44 10° SSW 02:24:58 29° SSE 02:35:18 10° E visible
23 Oct - 04:24:10 10° SW 04:38:57 46° S 04:47:49 10° E visible
23 Oct - 06:40:21 10° WSW 06:51:52 48° S 06:58:28 10° ESE visible
23 Oct - 08:56:45 10° W 09:03:05 24° SSW 09:07:26 10° SSE daylight
24 Oct - 00:57:12 10° S 01:09:42 22° SE 01:19:53 10° ESE visible
24 Oct - 03:08:04 10° SW 03:23:57 41° SSE 03:34:19 10° E visible
24 Oct - 05:23:36 10° WSW 05:37:39 52° S 05:45:44 10° ESE visible
24 Oct - 07:40:15 10° W 07:49:53 38° SSW 07:55:39 10° SE daylight
24 Oct - 09:58:41 10° WSW 10:00:09 11° SW 10:01:30 10° SSW daylight
24 Oct - 23:46:37 10° SSE 23:54:28 14° SE 00:01:40 10° ESE visible
25 Oct - 01:52:48 10° SSW 02:08:38 34° SSE 02:20:10 10° E visible
25 Oct - 04:06:51 10° WSW 04:22:54 51° S 04:32:37 10° E visible
25 Oct - 06:23:29 10° W 06:36:07 49° SSW 06:43:19 10° ESE visible
25 Oct - 08:40:28 10° W 08:47:23 24° SW 08:52:05 10° SSE daylight
26 Oct - 00:38:52 10° SSW 00:53:10 26° SE 01:04:56 10° E visible
26 Oct - 02:50:33 10° SW 03:07:41 46° SSE 03:19:03 10° E visible
26 Oct - 05:06:30 10° WSW 05:21:43 55° S 05:30:32 10° ESE visible
26 Oct - 07:23:35 10° W 07:34:08 38° SSW 07:40:26 10° SE daylight
26 Oct - 09:43:33 10° SW 09:44:21 10° SW 09:45:07 10° SW daylight
26 Oct - 23:27:08 10° S 23:37:50 17° SE 23:47:39 10° ESE night (unlit)
27 Oct - 01:35:08 10° SSW 01:52:07 39° SSE 02:04:49 10° E visible
27 Oct - 03:49:36 10° WSW 04:06:45 55° S 04:17:19 10° E visible
27 Oct - 06:06:34 10° W 06:20:15 50° SSW 06:28:05 10° ESE visible
27 Oct - 08:24:06 10° W 08:31:35 23° SW 08:36:40 10° SSE daylight
28 Oct - 00:20:56 10° SSW 00:36:30 30° SSE 00:49:38 10° E visible
28 Oct - 02:33:12 10° SW 02:51:16 50° SSE 03:03:38 10° E visible
28 Oct - 04:49:24 10° WSW 05:05:40 57° S 05:15:15 10° ESE visible
28 Oct - 07:06:51 10° W 07:18:16 38° SSW 07:25:08 10° SE daylight
28 Oct - 23:08:36 10° S 23:21:05 21° SE 23:32:48 10° E night (unlit)
